{"data":{"norad_id":65389,"epoch":"2026-05-25T02:16:13.860768Z","epoch_age_seconds":70097,"freshness":"FRESH","line1":"1 65389U 25191L   26145.09460487  .00001397  00000+0  10085-3 0  9991","line2":"2 65389  97.4519  16.4198 0002335  89.8156 270.3339 15.05660422 41763","mean_motion":15.05660422,"eccentricity":0.0002335,"inclination_deg":97.4519,"raan_deg":16.4198,"arg_perigee_deg":89.8156,"mean_anomaly_deg":270.3339,"bstar":0.00010085,"rev_number":4176,"period_min":95.639094908746,"perigee_km":547.86158739239,"apogee_km":551.09678415114,"semimajor_km":6927.6161857718,"source":"CELESTRAK","updated_at":"2026-05-25T13:38:20.773939Z"}}